User: anonymous   Login
Location: Caltech
(34.1382°N, 118.1253°W)
Time: 16:42:34
(UTC-07:00)
Language:

Cosmos 2333 Rocket - Orbit

View from above orbital plane
View from above orbital plane
View from above satellite
View from above satellite

Ground track
Ground track

The orbit data is extracted from the following two-line orbital elements,

1 24298U 96051B   17289.60384162 -.00000115 +00000-0 -35662-4 0  9998
2 24298 070.8475 166.2373 0015199 351.6160 008.4704 14.12487491088700
Epoch (UTC): 16 October 2017 14:29:31
Eccentricity: 0.0015199
inclination: 70.8475°
perigee height: 840 km
apogee height: 862 km
right ascension of ascending node: 166.2373°
argument of perigee: 351.6160°
revolutions per day: 14.12487491
mean anomaly at epoch: 8.4704°
orbit number at epoch: 8870

The dashed part of the orbit path shows where the satellite is in the earth's shadow,  

DLR